Location: Unspecified
(0.0000°N, 0.0000°E)
Time: 02:43:07
(UTC+00:00)

OTV 5 (USA 277) - Visible Passes

Search period start: 22 April 2019 00:00
Search period end: 02 May 2019 00:00
Orbit: 309 x 326 km, 54.5° (Epoch: 21 April)

Date Brightness Start Highest point End Pass type
(mag) Time Alt. Az. Time Alt. Az. Time Alt. Az.
22 Apr ? 18:58:06 10° W 18:59:17 12° WNW 19:00:28 10° NNW visible
24 Apr ? 04:58:28 10° NNE 05:00:03 15° ENE 05:01:39 10° E visible
25 Apr ? 05:12:04 10° NNW 05:14:42 84° ENE 05:17:21 10° SE visible
26 Apr ? 05:27:34 10° W 05:29:20 16° WSW 05:31:07 10° SSW visible
